Showing default

YAOGAN-30 M, 43172

Orbit data source: Space-Track

YAOGAN-30 M, 43172 is a payload satellite owned by PLA SSF (CN) in LEO that was launched on Thu, 25 Jan 2018 UTC via a CHANG ZHENG 2C launch vehicle from the Xichang Space Center, China (XSC). Payloads include a variety of satellites, spacecraft, and rockets equipped with specific instruments for various scientific and technological missions. These include communications satellites like Starlink; space stations such as the ISS; scientific satellites like the Hubble; Earth observation satellites from companies like Planet Labs, Umbra, and HawkEye 360; GPS; miniature CubeSats for education and research; and military/defense satellites.

Loading next visibility...
YAOGAN-30 M details
Identifier
43172, 2018-011D
Orbit
LEO
Last TLE update7 hours ago
Origin
Flag of CNPLA SSF (CN / PRC)
ManufacturerSECM
MissionOperational Defense Sigint
Bus & MotorUnknown
Mass~500 kg wet, ~500 kg dry
Launch date (UTC)
2018-01-25 (7 years ago)
Launch vehicle
CHANG ZHENG 2C
Launch site
Xichang Space Center, China (XSC)
Object type
Payload
Rocket body
Debris
Shape & HBRBox + 2 Pan, 1 m
Radar Cross Section0.446 m², Large (>1 m²)

Expand to show TLE details & history

TLE from 7 hours ago
0 YAOGAN-30 M
1 43172U 18011D   24341.15587676  .00006975  00000-0  58400-3 0  9994
2 43172  34.9983 301.1100 0005083 231.8618 128.1631 14.97800102374352
Epoch: 2024-12-06T03:44Z
Definitive object data (Epoch: 2024-12-06T03:44:27.752Z)
Latitude0.00001°
Longitude169.568°
Altitude574.798 km
Speed7.574 km/s
True Right ascension20h 04m 26s
True Declination0° 00' 00"
Sunlit
Object was in daylight at TLE epoch
Visualization TLE readout
Latitude-27.71741°
Longitude35.96419°
Altitude576.45 km
Speed7.575 km/s
Apparent Right ascension14h 37m 00s
Apparent Declination-67° 19' 46"
Sunlit
Object is in daylight
Visualization observer readout
Local Sidereal Time09:13:11
Azimuth152.987° SSE
Elevation-33.066°
Doppler factor1
Orbital elements
Apogee altitude580.445 km
Perigee altitude573.374 km
Semi-major axis6,955.047 km
Eccentricity0.0005083
Inclination34.9983°
RAAN301.11°
Arg. of periapsis231.8618°
True anomaly128.20888°
Mean anomaly128.1631°
Eccentric anomaly128.18599°
Mean motion3.74191 °/min
BSTAR0.000584
Orbital period96.21 mins
Loading maneuver chart data...
Loading historical data...
Loading historical data...
Loading historical data...
Loading historical data...
Loading historical data...
Loading historical data...
Loading historical data...
Other satellites on launch #11 in the year 2018 (2018-01-25 UTC)

YAOGAN-30 M Visibility forecast

Observer location: undefined°, undefined

Span
Click to sort rows by Start time (UTC) header in descending order
Start Az.
Max El. time (UTC)
Max El. Az.
Max El.
End time (UTC)
End Az.
4 mins2024-12-07 00:45:44.273Z187.601° SSW2024-12-07 00:47:44.273Z156.189° SSE16.446°2024-12-07 00:49:44.273Z124.327° SE
6 mins2024-12-07 02:26:44.273Z220.844° SW2024-12-07 02:28:44.273Z172.351° S30.845°2024-12-07 02:32:44.273Z103° ESE
6 mins2024-12-07 04:07:44.273Z243.3° WSW2024-12-07 04:09:44.273Z197.934° SSW32.952°2024-12-07 04:13:44.273Z117.049° SE
4 mins2024-12-07 05:49:44.273Z229.227° WSW2024-12-07 05:50:44.273Z210.04° SW21.041°2024-12-07 05:53:44.273Z156.125° SSE
|